TimeMDT,TemperatureF,Dew PointF,Humidity,Sea Level PressureIn,VisibilityMPH,Wind Direction,Wind SpeedMPH,Gust SpeedMPH,PrecipitationIn,Events,Conditions,WindDirDegrees,DateUTC
12:53 AM,28.0,19.9,72,30.01,10.0,Calm,Calm,-,N/A,,Clear,0,2012-10-08 06:53:00
1:53 AM,30.0,19.0,64,29.99,10.0,North,3.5,-,N/A,,Clear,360,2012-10-08 07:53:00
2:53 AM,30.0,18.0,61,29.97,10.0,North,3.5,-,N/A,,Clear,350,2012-10-08 08:53:00
3:53 AM,27.0,19.0,72,29.96,10.0,Calm,Calm,-,N/A,,Clear,0,2012-10-08 09:53:00
4:53 AM,27.0,18.0,69,29.96,10.0,North,3.5,-,N/A,,Clear,360,2012-10-08 10:53:00
5:53 AM,26.1,17.1,69,29.96,10.0,Calm,Calm,-,N/A,,Clear,0,2012-10-08 11:53:00
6:53 AM,26.1,17.1,69,29.99,10.0,Calm,Calm,-,N/A,,Clear,0,2012-10-08 12:53:00
7:53 AM,27.0,19.0,72,30.01,10.0,Calm,Calm,-,N/A,,Clear,0,2012-10-08 13:53:00
8:53 AM,34.0,26.1,73,29.99,10.0,Calm,Calm,-,N/A,,Clear,0,2012-10-08 14:53:00
9:53 AM,42.1,21.0,43,29.99,10.0,North,3.5,-,N/A,,Clear,350,2012-10-08 15:53:00
10:53 AM,48.0,23.0,37,29.95,10.0,WNW,4.6,-,N/A,,Clear,300,2012-10-08 16:53:00
11:53 AM,60.1,19.9,21,29.88,10.0,WNW,11.5,20.7,N/A,,Clear,290,2012-10-08 17:53:00
12:53 PM,60.1,18.0,20,29.87,10.0,WNW,15.0,-,N/A,,Clear,290,2012-10-08 18:53:00
1:53 PM,62.1,16.0,17,29.84,10.0,WNW,13.8,-,N/A,,Clear,290,2012-10-08 19:53:00
2:53 PM,61.0,16.0,17,29.83,10.0,NW,8.1,-,N/A,,Clear,310,2012-10-08 20:53:00
3:53 PM,61.0,17.1,18,29.82,10.0,NNW,6.9,-,N/A,,Clear,330,2012-10-08 21:53:00
4:53 PM,61.0,16.0,17,29.81,10.0,Calm,Calm,-,N/A,,Clear,0,2012-10-08 22:53:00
5:53 PM,55.9,23.0,28,29.84,10.0,NE,13.8,-,N/A,,Clear,40,2012-10-08 23:53:00
6:53 PM,52.0,25.0,35,29.87,10.0,NE,11.5,-,N/A,,Clear,40,2012-10-09 00:53:00
8:53 PM,48.0,30.0,50,29.93,10.0,North,3.5,-,N/A,,Clear,10,2012-10-09 02:53:00
9:53 PM,46.9,32.0,56,29.92,10.0,ENE,3.5,-,N/A,,Scattered Clouds,60,2012-10-09 03:53:00
10:53 PM,44.1,33.1,65,29.94,10.0,Calm,Calm,-,N/A,,Partly Cloudy,0,2012-10-09 04:53:00
11:53 PM,44.1,34.0,68,29.90,10.0,Calm,Calm,-,N/A,,Clear,0,2012-10-09 05:53:00